This is the latest recevied weather packets stored in our database for station/object PA1CD-13. If no packets are shown the sender has not sent any weather packets the latest 1 day(s).
| Time | Temp. | Humidity | Pressure | Rain* | Wind** | Luminosity | Snow |
|---|---|---|---|---|---|---|---|
| 1778051284 | 11.11° C | 1% | 1008.1 hPa | 0 mm | - | 172 W/m² | - |
| 1778051165 | 11.11° C | 1% | 1008.3 hPa | 0 mm | - | 167 W/m² | - |
| 1778050925 | 11.11° C | 1% | 1008.2 hPa | 0 mm | - | 167 W/m² | - |
| 1778050564 | 11.11° C | 1% | 1008.2 hPa | 0 mm | - | 160 W/m² | - |
| 1778050324 | 11.11° C | 1% | 1008.3 hPa | 0 mm | - | 150 W/m² | - |
| 1778050205 | 11.11° C | 1% | 1008.1 hPa | 0 mm | - | 141 W/m² | - |
| 1778050084 | 11.11° C | 1% | 1008.1 hPa | 0 mm | - | 141 W/m² | - |
| 1778049962 | 11.11° C | 1% | 1008.1 hPa | 0 mm | - | 137 W/m² | - |
| 1778049844 | 11.11° C | 1% | 1008.1 hPa | 0 mm | - | 134 W/m² | - |
| 1778049724 | 11.11° C | 1% | 1008 hPa | 0 mm | - | 127 W/m² | - |
| 1778049604 | 11.11° C | 1% | 1008.1 hPa | 0 mm | - | 116 W/m² | - |
| 1778048884 | 11.11° C | 1% | 1008.2 hPa | 0 mm | - | 113 W/m² | - |
| 1778048765 | 11.11° C | 1% | 1008 hPa | 0 mm | - | 120 W/m² | - |
| 1778048643 | 11.11° C | 1% | 1008 hPa | 0 mm | - | 120 W/m² | - |
| 1778047685 | 11.11° C | 1% | 1007.9 hPa | 0 mm | - | 193 W/m² | - |
| 1778047443 | 11.11° C | 1% | 1007.9 hPa | 0 mm | - | 209 W/m² | - |
| 1778047323 | 11.11° C | 1% | 1007.9 hPa | 0 mm | - | 209 W/m² | - |
| 1778046842 | 10.56° C | 1% | 1007.9 hPa | 0 mm | - | 179 W/m² | - |
| 1778046722 | 10.56° C | 1% | 1007.8 hPa | 0 mm | - | 179 W/m² | - |
| 1778046603 | 10.56° C | 1% | 1007.9 hPa | 0 mm | - | 183 W/m² | - |
| 1778046483 | 10.56° C | 1% | 1007.9 hPa | 0 mm | - | 181 W/m² | - |
| 1778046122 | 10.56° C | 1% | 1007.9 hPa | 0 mm | - | 179 W/m² | - |
| 1778045883 | 10° C | 1% | 1007.9 hPa | 0 mm | - | 164 W/m² | - |
| 1778045764 | 10° C | 1% | 1007.9 hPa | 0 mm | - | 155 W/m² | - |
| 1778045525 | 10° C | 1% | 1007.9 hPa | 0 mm | - | 143 W/m² | - |
* Rain latest hour (hover to see other rain measurements)
** Current wind speed in m/s (hover to see current wind gust speed)